Stanley, ND

9:25 PM CDT on May 23, 2017 (GMT -0500)
Stanley

Weather History for K08D - November, 2012

Change the Weather History Date:

Saturday, November 24, 2012

  Actual Average (KMIB) Record (KMIB)
Temperature  
Mean Temperature 26 °F -  
Max Temperature 35 °F 30 °F 53 °F (2011)
Min Temperature 17 °F 15 °F -13 °F (1996)
Degree Days  
Heating Degree Days 39    
Moisture  
Dew Point 23 °F    
Average Humidity 91    
Maximum Humidity 100    
Minimum Humidity 74    
Precipitation  
Precipitation 0.00 in - - ()
Sea Level Pressure  
Sea Level Pressure 29.86 in    
Wind  
Wind Speed 14 mph (West)    
Max Wind Speed 24 mph    
Max Gust Speed 34 mph    
Visibility 10 miles    
Events Rain , Snow    
Averages and records for this station are not official NWS values.
T = Trace of Precipitation, MM = Missing Value Source: NWS Daily Summary

Daily Weather History Graph

Daily Weather History Graph

Search for Another Location

Airport or City:

Trip Planner

Search our weather history database for the weather conditions in past years. The results will help you decide how hot, cold, wet, or windy it might be!

Date:

Astronomy

Nov. 24, 2012 Rise Set
Actual Time 8:10 AM CST 5:01 PM CST
Civil Twilight 7:35 AM CST 5:36 PM CST
Nautical Twilight 6:57 AM CST 6:15 PM CST
Astronomical Twilight 6:19 AM CST 6:52 PM CST
Moon 2:59 PM CST 4:16 AM CST
Length of Visible Light 10h 01m
Length of Day
8h 50m
Waxing Gibbous, 87% of the Moon is Illuminated
Nov 24
Waxing Gibbous
Nov 28
Full
Dec 6
Last Quarter
Dec 13
New
Dec 19
First Quarter

Hourly Weather History & Observations

Time (CST) Temp. Windchill Dew Point Humidity Pressure Visibility Wind Dir Wind Speed Gust Speed Precip Events Conditions
12:15 AM 23.0 °F 10.6 °F 17.6 °F 80% 30.04 in 10.0 mi South 13.8 mph - N/A   Overcast
12:35 AM 23.0 °F 10.6 °F 17.6 °F 80% 30.03 in 10.0 mi South 13.8 mph - N/A   Overcast
12:55 AM 23.0 °F 10.1 °F 17.6 °F 80% 30.02 in 10.0 mi South 15.0 mph - N/A   Overcast
1:15 AM 23.0 °F 10.1 °F 19.4 °F 86% 30.01 in 10.0 mi South 15.0 mph 18.4 mph N/A   Overcast
1:35 AM 23.0 °F 10.6 °F 19.4 °F 86% 29.99 in 10.0 mi SSE 13.8 mph - N/A   Overcast
1:55 AM 23.0 °F 13.1 °F 19.4 °F 86% 29.99 in 10.0 mi SSE 9.2 mph - N/A   Overcast
2:15 AM 23.0 °F 11.7 °F 19.4 °F 86% 29.97 in 10.0 mi SSE 11.5 mph - N/A   Overcast
2:35 AM 23.0 °F 11.7 °F 19.4 °F 86% 29.96 in 10.0 mi SSE 11.5 mph - N/A   Overcast
2:55 AM 24.8 °F 14.6 °F 19.4 °F 80% 29.95 in 10.0 mi SSE 10.4 mph - N/A   Overcast
3:15 AM 24.8 °F 14.0 °F 19.4 °F 80% 29.94 in 10.0 mi South 11.5 mph - N/A   Overcast
3:35 AM 24.8 °F 13.4 °F 19.4 °F 80% 29.91 in 10.0 mi South 12.7 mph - N/A   Overcast
3:55 AM 24.8 °F 12.9 °F 19.4 °F 80% 29.90 in 10.0 mi South 13.8 mph - N/A   Overcast
4:15 AM 24.8 °F 13.4 °F 19.4 °F 80% 29.89 in 10.0 mi South 12.7 mph 17.3 mph N/A   Mostly Cloudy
4:35 AM 24.8 °F 12.9 °F 19.4 °F 80% 29.87 in 10.0 mi South 13.8 mph - N/A   Partly Cloudy
4:55 AM 24.8 °F 14.0 °F 19.4 °F 80% 29.86 in 10.0 mi South 11.5 mph - N/A   Clear
5:15 AM 24.8 °F 14.0 °F 19.4 °F 80% 29.86 in 10.0 mi South 11.5 mph - N/A   Mostly Cloudy
5:35 AM 24.8 °F 15.3 °F 19.4 °F 80% 29.85 in 10.0 mi South 9.2 mph - N/A   Mostly Cloudy
5:55 AM 26.6 °F 15.7 °F 19.4 °F 74% 29.83 in 10.0 mi South 12.7 mph - N/A   Partly Cloudy
6:15 AM 26.6 °F 16.2 °F 19.4 °F 74% 29.82 in 10.0 mi South 11.5 mph - N/A   Clear
6:35 AM 24.8 °F 14.0 °F 19.4 °F 80% 29.81 in 10.0 mi South 11.5 mph - N/A   Partly Cloudy
6:55 AM 24.8 °F 14.0 °F 19.4 °F 80% 29.81 in 10.0 mi SSW 11.5 mph - N/A   Partly Cloudy
7:15 AM 24.8 °F 17.9 °F 19.4 °F 80% 29.80 in 10.0 mi South 5.8 mph - N/A   Partly Cloudy
7:35 AM 24.8 °F 16.1 °F 19.4 °F 80% 29.80 in 10.0 mi SSW 8.1 mph - N/A   Clear
7:55 AM 24.8 °F 16.9 °F 19.4 °F 80% 29.79 in 10.0 mi SSW 6.9 mph - N/A   Clear
8:15 AM 24.8 °F 15.3 °F 19.4 °F 80% 29.78 in 10.0 mi SSW 9.2 mph - N/A   Partly Cloudy
8:35 AM 26.6 °F 18.2 °F 19.4 °F 74% 29.78 in 10.0 mi SW 8.1 mph - N/A   Mostly Cloudy
8:55 AM 26.6 °F 19.1 °F 21.2 °F 80% 29.78 in 10.0 mi South 6.9 mph - N/A   Mostly Cloudy
9:15 AM 28.4 °F 21.2 °F 23.0 °F 80% 29.76 in 10.0 mi SSW 6.9 mph - N/A Rain Light Freezing Rain
9:35 AM 28.4 °F 17.5 °F 26.6 °F 93% 29.78 in 10.0 mi WSW 13.8 mph 17.3 mph N/A Rain Light Freezing Rain
9:55 AM 30.2 °F 20.2 °F 28.4 °F 93% 29.77 in 10.0 mi West 12.7 mph - N/A Rain Light Freezing Rain
10:15 AM 32.0 °F 23.6 °F 32.0 °F 100% 29.76 in 10.0 mi WSW 10.4 mph - N/A   Scattered Clouds
10:35 AM 32.0 °F 22.5 °F 32.0 °F 100% 29.77 in 10.0 mi West 12.7 mph - N/A   Mostly Cloudy
10:55 AM 32.0 °F 23.6 °F 32.0 °F 100% 29.77 in 10.0 mi West 10.4 mph - N/A   Mostly Cloudy
11:15 AM 32.0 °F 23.6 °F 32.0 °F 100% 29.76 in 10.0 mi West 10.4 mph - N/A   Clear
11:35 AM 32.0 °F 22.5 °F 32.0 °F 100% 29.76 in 10.0 mi West 12.7 mph 17.3 mph N/A   Clear
11:55 AM 32.0 °F 23.0 °F 32.0 °F 100% 29.76 in 10.0 mi WNW 11.5 mph 16.1 mph N/A   Clear
12:15 PM 33.8 °F 24.8 °F 32.0 °F 93% 29.76 in 10.0 mi WNW 12.7 mph 18.4 mph N/A   Clear
12:35 PM 35.6 °F 26.2 °F 33.8 °F 93% 29.75 in 10.0 mi WNW 15.0 mph 20.7 mph N/A   Clear
12:55 PM 35.6 °F 25.9 °F 33.8 °F 93% 29.75 in 10.0 mi NW 16.1 mph 20.7 mph N/A   Clear
1:15 PM 35.6 °F 25.5 °F 32.0 °F 87% 29.76 in 10.0 mi NW 17.3 mph 23.0 mph N/A   Partly Cloudy
1:35 PM 35.6 °F 25.9 °F 32.0 °F 87% 29.77 in 10.0 mi NW 16.1 mph 26.5 mph N/A   Partly Cloudy
1:55 PM 32.0 °F 19.8 °F 28.4 °F 87% 29.78 in 10.0 mi NW 20.7 mph 31.1 mph N/A   Partly Cloudy
2:15 PM 32.0 °F 19.2 °F 28.4 °F 87% 29.79 in 10.0 mi NW 23.0 mph 28.8 mph N/A   Partly Cloudy
2:35 PM 32.0 °F 20.5 °F 28.4 °F 87% 29.79 in 10.0 mi NW 18.4 mph 27.6 mph N/A   Clear
2:55 PM 30.2 °F 18.5 °F 26.6 °F 86% 29.78 in 10.0 mi NW 17.3 mph 25.3 mph N/A   Clear
3:15 PM 28.4 °F 14.1 °F 26.6 °F 93% 29.81 in 10.0 mi NW 24.2 mph 29.9 mph N/A   Clear
3:35 PM 24.8 °F 9.3 °F 23.0 °F 93% 29.83 in 10.0 mi NW 24.2 mph 34.5 mph N/A   Mostly Cloudy
3:55 PM 23.0 °F 7.6 °F 23.0 °F 100% 29.83 in 10.0 mi NW 21.9 mph 29.9 mph N/A   Overcast
4:15 PM 21.2 °F 6.0 °F 21.2 °F 100% 29.84 in 10.0 mi NW 19.6 mph 27.6 mph N/A   Mostly Cloudy
4:35 PM 19.4 °F 3.2 °F 19.4 °F 100% 29.84 in 10.0 mi NW 20.7 mph 29.9 mph N/A   Scattered Clouds
4:55 PM 19.4 °F 2.1 °F 19.4 °F 100% 29.85 in 10.0 mi NW 24.2 mph 31.1 mph N/A   Partly Cloudy
5:15 PM 17.6 °F 1.3 °F 17.6 °F 100% 29.86 in 10.0 mi NNW 19.6 mph 32.2 mph N/A Snow Light Snow
5:35 PM 17.6 °F 1.3 °F 17.6 °F 100% 29.86 in 10.0 mi NNW 19.6 mph 27.6 mph N/A   Overcast
5:55 PM 17.6 °F 1.3 °F 17.6 °F 100% 29.88 in 10.0 mi NW 19.6 mph 26.5 mph N/A   Overcast
6:15 PM 19.4 °F 6.6 °F 19.4 °F 100% 29.91 in 10.0 mi NW 12.7 mph 24.2 mph N/A   Overcast
6:35 PM 19.4 °F 6.0 °F 19.4 °F 100% 29.91 in 10.0 mi NNW 13.8 mph 20.7 mph N/A   Overcast
6:55 PM 19.4 °F 5.5 °F 19.4 °F 100% 29.90 in 10.0 mi NW 15.0 mph 23.0 mph N/A   Overcast
7:15 PM 19.4 °F 4.5 °F 19.4 °F 100% 29.91 in 10.0 mi NW 17.3 mph 25.3 mph N/A   Overcast
7:35 PM 19.4 °F 2.8 °F 19.4 °F 100% 29.92 in 10.0 mi NW 21.9 mph 27.6 mph N/A   Overcast
7:55 PM 19.4 °F 2.8 °F 19.4 °F 100% 29.91 in 10.0 mi NNW 21.9 mph 28.8 mph N/A   Overcast
8:15 PM 19.4 °F 3.2 °F 19.4 °F 100% 29.92 in 10.0 mi NW 20.7 mph 26.5 mph N/A   Overcast
8:35 PM 19.4 °F 7.2 °F 19.4 °F 100% 29.93 in 10.0 mi NW 11.5 mph 24.2 mph N/A   Overcast
8:55 PM 19.4 °F 3.6 °F 19.4 °F 100% 29.93 in 10.0 mi NW 19.6 mph 26.5 mph N/A   Overcast
9:15 PM 21.2 °F 6.4 °F 21.2 °F 100% 29.93 in 10.0 mi NW 18.4 mph 27.6 mph N/A   Overcast
9:35 PM 23.0 °F 10.1 °F 23.0 °F 100% 29.94 in 10.0 mi NW 15.0 mph 25.3 mph N/A   Overcast
9:55 PM 23.0 °F 8.0 °F 23.0 °F 100% 29.93 in 10.0 mi NW 20.7 mph 26.5 mph N/A   Overcast
10:15 PM 23.0 °F 10.1 °F 23.0 °F 100% 29.93 in 10.0 mi NW 15.0 mph 25.3 mph N/A   Overcast
10:35 PM 23.0 °F 10.1 °F 23.0 °F 100% 29.93 in 10.0 mi WNW 15.0 mph 20.7 mph N/A   Overcast
10:55 PM 23.0 °F 9.6 °F 23.0 °F 100% 29.93 in 10.0 mi WNW 16.1 mph 23.0 mph N/A   Overcast
11:15 PM 24.8 °F 11.1 °F 24.8 °F 100% 29.93 in 10.0 mi WNW 18.4 mph 24.2 mph N/A   Overcast
11:35 PM 24.8 °F 10.3 °F 24.8 °F 100% 29.93 in 10.0 mi WNW 20.7 mph 27.6 mph N/A   Overcast
11:55 PM 24.8 °F 11.9 °F 23.0 °F 93% 29.93 in 10.0 mi WNW 16.1 mph 28.8 mph N/A   Mostly Cloudy